CZ-6A DEB, 54509

Orbit data source: Space-Track

CZ-6A DEB, 54509 is space debris in SSO originally from a launch on Fri, 11 Nov 2022 UTC launched from the Taiyaun Space Center, China (TSC). Debris objects in space refer to the collection of defunct objects orbiting the Earth. Examples of debris include non-operational satellites, rocket bodies, and fragments generated from explosions, collisions, or faulty payload assembly.

Loading next visibility...
Identifier
54509, 2022-151JM
Orbit
SSO
Country
Flag of CNCN / PRC
Related business
Manufacturer
SAST
Mission
Spacecraft
Bus & Motor
Unknown
Mass
Unknown
Launch date (UTC)
2022-11-11 (4 years ago)
Launch vehicle
Unknown
Launch site
Taiyaun Space Center, China (TSC)
Object type
Payload
Rocket body
Debris
Shape & HBR
Unknown shape, 0.2 m
Radar Cross Section
Medium (>0.1 m² and <1 m²)

Expand to show TLE details & history
Last TLE update: 2 days ago

TLE from 2 days ago
0 CZ-6A DEB
1 54509U 22151JM  26171.43711060  .00000020  00000-0  44760-4 0  9990
2 54509  98.9246 138.3199 0126317  67.4216 294.0253 13.92504257182917
Epoch: 2026-06-20T10:29Z
TLE epoch observation values (Epoch: 2026-06-20T10:29:26.355Z)
Latitude
-0.00009°
Longitude
72.30835°
Altitude
886.177 km
Speed
7.428 km/s
True Right ascension
09h 13m 16s
True Declination
0° 00' 00"
Sunlit
Object was in daylight at epoch
Visualization orbit readout
Latitude
Unknown
Longitude
Unknown
Altitude
Unknown
Speed
Unknown
Apparent Right ascension
Unknown
Apparent Declination
Unknown
Sunlit
N/A
Visualization observer readout
Local Sidereal Time
21:32:50
Azimuth
Unknown
Elevation
Unknown
Doppler factor
Unknown
Orbital elements
Apogee altitude
1,009.224 km
Perigee altitude
824.922 km
Semi-major axis
7,295.21 km
Eccentricity
0.01263
Inclination
98.9246°
RAAN
138.3199°
Arg. of periapsis
67.4216°
True anomaly
292.69478°
Mean anomaly
294.0253°
Eccentric anomaly
293.36089°
Mean motion
3.48326 °/min
Orbital period
103.35 mins
BSTAR
0.00004476
Loading maneuver chart data...
Computing Atmospheric mass density...
Loading historical data...
Loading historical data...
Loading historical data...
Loading historical data...
Loading historical data...
Loading historical data...
Loading historical data...

Documentation

Showing up to 5 results
|